Helicity
71 99 78 103 106 158 161 167 184 122 126 128 120 116 132 156 224 186 91 122 166 205 254 279 262 257 260 235 198 164 131 108 103 118 125 114 107 100 82 75 60 43 42 39
97 77 60 76 40 59 53 96 139 107 113 141 143 144 128 137 161 149 177 129 140 161 172 198 231 257 237 214 176 151 123 104 114 112 116 107 100 87 82 69 56 51 47 31
100 79 66 56 86 102 108 142 177 175 151 170 145 91 77 92 124 168 179 134 123 108 112 152 208 224 199 179 182 138 110 119 118 112 97 99 92 82 76 65 49 55 48 30
116 109 112 97 108 67 28 16 142 173 164 160 54 65 111 147 151 171 175 157 130 100 106 130 167 175 188 197 162 138 131 128 124 108 104 98 87 80 68 57 56 53 45 43
136 92 88 72 111 130 114 34 36 12 53 89 88 113 97 97 103 123 134 123 83 87 116 154 166 177 183 181 160 145 136 138 130 116 107 96 80 75 64 62 66 55 42 40
136 141 72 70 54 87 136 101 60 67 54 123 140 138 101 133 153 174 128 104 107 115 143 167 157 177 191 182 164 139 144 152 143 118 100 87 76 72 64 67 61 48 46 37
98 126 89 90 134 100 148 75 59 64 76 121 138 112 79 118 155 162 147 103 110 122 152 158 186 192 185 181 158 157 158 150 137 121 110 98 81 67 69 64 60 49 48 47
86 107 111 121 225 196 43 71 47 26 40 75 99 102 142 136 146 117 121 113 119 140 156 171 193 196 194 171 178 175 165 153 133 123 112 95 84 75 72 68 60 50 53 56
89 97 152 146 96 30 11 1 46 35 43 87 133 123 134 150 109 95 89 97 119 134 167 167 179 185 206 200 191 187 162 147 139 129 110 96 86 81 78 64 55 54 57 57
69 112 71 154 68 53 76 33 32 33 55 97 89 111 85 80 85 71 89 109 127 145 161 172 165 161 168 200 191 187 161 158 146 137 130 106 85 79 73 67 65 63 59 72
67 25 15 -36 -1 17 1 45 50 55 31 37 59 60 76 78 60 85 112 114 112 102 119 136 163 172 184 197 191 174 165 155 146 137 123 108 87 82 75 70 61 70 75 75
69 50 28 12 18 43 50 53 52 67 95 74 56 61 84 84 77 115 119 127 133 119 108 130 153 185 190 185 178 183 167 145 142 144 127 112 115 119 92 87 96 103 92 95
73 57 26 28 70 61 69 69 68 48 52 75 62 85 72 107 128 107 133 141 152 124 128 149 161 179 199 184 175 169 171 164 152 144 131 123 119 109 114 90 101 113 115 104
74 61 56 81 45 94 96 84 105 80 64 64 66 93 114 121 143 147 147 152 147 169 190 209 214 215 223 217 206 196 200 187 170 143 129 122 108 101 103 104 116 132 150 151
69 108 105 98 89 60 59 36 36 48 68 80 87 75 85 112 121 143 161 181 206 205 233 248 242 235 256 253 226 218 203 168 152 136 127 119 111 107 109 114 132 152 163 173
15 43 63 75 48 42 43 46 24 10 17 23 49 75 87 84 104 175 212 222 256 237 221 241 234 253 275 251 222 213 182 171 161 131 127 122 120 125 133 135 147 156 149 153
53 61 80 56 55 45 32 27 29 40 61 72 73 99 140 170 214 221 226 224 201 225 240 250 239 303 280 251 236 198 166 149 142 143 136 133 138 139 142 146 144 145 145 162
93 98 98 93 49 44 41 32 27 26 33 45 79 104 156 174 170 197 213 244 261 263 262 259 276 321 275 235 215 188 171 166 160 154 157 154 148 154 161 157 154 163 177 188
146 131 104 70 67 46 41 46 41 28 16 30 83 122 127 121 170 205 234 217 216 257 208 252 313 313 269 227 210 170 170 180 179 173 161 170 177 174 172 164 167 173 180 179
159 109 81 80 84 62 38 29 32 29 20 44 98 133 127 140 177 210 218 201 181 206 273 290 303 267 251 227 209 171 176 180 183 181 182 182 177 171 165 167 173 175 170 166
91 98 80 52 55 28 -4 3 9 19 36 60 127 141 160 198 230 254 286 266 246 256 304 293 277 285 259 226 195 183 180 182 182 185 185 182 181 169 165 166 168 167 169 169
34 23 3 -9 -3 -13 -1 12 -8 -1 20 83 169 193 216 229 277 308 296 301 363 247 272 253 252 255 241 238 195 188 180 180 184 186 186 177 165 158 158 165 168 169 168 166
14 -5 -24 -31 -7 13 26 25 4 31 68 83 138 153 160 170 212 345 358 228 238 220 215 220 217 267 279 237 207 192 185 188 186 178 168 155 150 155 159 161 168 174 172 171
24 -6 -26 0 15 29 55 49 62 70 87 99 123 123 136 172 181 156 161 179 198 200 196 194 224 252 241 211 195 185 182 184 180 171 163 164 158 160 161 167 173 168 167 169
50 54 55 11 36 68 75 67 81 80 84 102 80 96 103 116 122 144 175 178 182 181 181 202 237 240 207 192 184 181 183 180 173 170 162 161 163 160 162 165 159 157 156 152
23 35 48 51 59 67 66 66 71 70 71 91 109 109 116 125 156 162 157 170 163 172 195 208 207 202 193 189 192 194 192 186 174 161 162 160 156 161 162 159 157 149 144 145
69 76 67 62 61 56 56 56 56 50 50 63 93 101 108 112 119 127 146 154 167 180 202 198 192 197 193 192 195 194 186 172 161 161 159 158 153 150 145 142 144 143 140 135
Wind_Speed
75 77 75 78 79 85 72 66 68 61 63 61 55 55 49 34 22 17 11 16 18 21 24 21 19 16 15 14 11 8 12 14 17 22 27 31 36 37 39 41 42 42 45 47
93 84 80 80 74 72 74 71 75 75 76 63 56 53 43 24 19 19 22 19 23 25 20 18 15 13 11 10 6 5 8 12 14 19 22 27 31 34 36 38 39 40 43 46
95 84 81 87 72 75 78 77 70 76 72 57 52 37 29 26 24 23 24 20 16 15 15 13 11 10 9 6 3 3 7 9 12 17 18 22 26 30 33 35 36 38 41 42
90 80 92 78 63 63 68 75 60 62 56 47 33 39 43 33 24 23 16 12 12 13 14 11 5 4 4 3 1 2 6 8 10 14 16 18 21 26 29 32 35 36 39 41
76 81 83 85 69 56 53 64 33 36 34 33 42 39 36 24 15 9 9 10 12 12 12 7 3 1 1 1 1 2 4 7 9 12 14 16 18 22 25 30 33 35 36 39
60 68 78 72 60 45 40 71 39 31 40 35 22 36 32 12 3 5 9 12 13 13 11 8 4 1 1 2 2 1 4 6 10 12 14 14 15 18 22 27 31 33 35 37
62 71 68 58 54 26 38 46 27 21 23 20 26 25 24 3 1 8 12 13 11 10 9 7 4 2 2 1 0 4 7 8 10 13 13 14 15 17 20 25 28 30 33 37
50 56 66 46 34 36 38 28 29 33 25 16 21 20 8 3 3 8 10 11 12 12 11 9 5 3 2 1 4 6 7 7 9 11 12 13 14 16 19 22 25 28 30 34
41 48 53 55 55 49 32 36 37 39 35 22 14 8 2 1 3 9 10 12 12 12 12 10 5 3 3 3 5 6 6 6 7 8 10 12 13 14 18 20 23 25 28 33
47 40 50 57 53 55 50 42 41 43 27 10 2 2 5 7 4 6 9 11 12 12 13 9 4 2 2 3 5 6 5 6 6 7 9 11 13 15 17 18 21 23 27 32
46 60 54 51 57 56 54 43 39 33 24 5 3 1 3 1 3 9 11 12 10 11 9 6 3 2 2 4 6 5 5 6 5 6 8 10 13 14 16 18 20 23 27 30
49 43 51 59 55 48 45 45 45 37 30 23 15 15 17 15 15 10 12 12 12 10 8 6 3 2 2 4 6 5 5 5 3 4 6 8 11 15 18 17 20 24 27 32
58 53 55 59 52 50 50 45 37 35 25 27 21 23 16 16 11 13 15 13 11 6 4 3 1 2 3 5 6 6 6 4 4 3 4 5 8 10 13 14 18 24 29 28
39 48 54 46 60 45 44 52 50 51 50 45 42 32 24 23 23 18 16 13 10 6 3 1 1 3 5 6 6 8 5 5 4 3 3 4 5 8 11 11 14 21 29 28
43 39 40 52 55 52 52 59 63 65 61 55 49 45 36 32 28 22 20 13 9 7 6 4 3 4 8 8 9 10 6 3 3 3 2 2 5 8 10 12 15 19 24 28
49 47 52 56 60 61 59 59 63 64 59 56 50 45 41 37 33 24 17 10 10 12 10 8 7 6 9 10 10 8 6 5 5 3 1 3 6 9 11 14 16 19 22 24
41 35 48 59 61 63 67 67 66 67 60 55 55 51 43 36 31 24 18 14 12 10 10 10 9 6 8 9 11 7 4 3 3 1 4 6 8 11 13 15 17 19 23 25
33 36 40 44 49 58 62 64 66 68 67 65 58 47 34 25 21 17 14 11 10 10 8 7 6 5 6 7 7 4 3 2 1 4 8 10 12 14 16 18 19 21 24 27
44 44 43 45 46 53 58 61 63 66 67 63 48 34 24 22 17 11 9 9 9 9 9 6 7 6 5 5 5 2 1 1 4 8 10 12 13 16 18 19 20 22 24 27
49 45 46 49 48 54 59 58 61 63 62 50 34 27 22 17 10 7 8 10 9 10 6 7 8 6 4 6 5 1 1 1 5 8 9 11 14 16 18 19 21 22 25 28
45 44 49 54 56 58 57 58 61 62 60 37 18 15 14 10 6 6 7 8 9 2 8 12 11 4 5 7 4 1 2 4 6 6 9 12 14 16 18 20 21 24 26 28
47 52 55 57 57 59 56 57 57 56 50 37 24 14 10 9 8 12 16 9 5 7 10 10 5 9 9 8 2 2 5 6 7 9 11 12 14 16 18 20 23 24 26 28
53 55 56 59 58 56 53 53 52 48 40 27 17 10 7 6 7 8 11 9 5 4 5 4 7 11 11 4 2 4 5 6 8 9 11 12 15 17 18 20 23 24 26 28
55 55 57 54 53 51 49 44 41 38 32 26 21 16 9 5 11 19 10 2 2 3 2 5 9 12 7 2 4 5 6 7 8 10 12 14 16 18 20 22 22 23 24 25
43 40 45 51 49 46 38 34 34 30 27 25 20 17 13 14 14 8 4 2 4 2 2 7 10 8 3 4 5 6 6 8 9 11 13 14 17 19 21 21 21 22 24 26
37 33 36 36 35 30 29 29 29 27 25 22 20 17 17 16 11 8 6 7 7 7 7 8 5 4 5 6 6 7 8 10 10 12 14 16 18 19 20 20 22 22 24 25
35 32 31 33 33 30 27 26 25 25 21 18 17 16 14 11 9 9 9 8 7 6 6 5 5 5 6 7 7 8 10 11 12 13 16 17 19 19 19 20 21 23 24 24
Wind_Direction
284 285 288 289 289 287 288 288 279 281 283 286 290 299 299 288 278 277 272 281 281 283 285 281 287 292 302 314 323 348 354 4 13 12 17 16 12 13 9 9 12 16 14 11
286 288 285 283 284 282 285 282 284 285 283 291 296 299 299 280 260 272 285 290 295 295 288 281 281 279 288 300 307 340 354 3 10 6 13 15 13 8 5 7 10 13 12 17
287 291 291 285 277 281 281 280 277 276 284 293 297 292 285 279 270 272 284 296 296 296 297 290 279 266 270 277 300 334 360 13 7 2 11 20 18 9 6 5 9 7 14 20
286 289 284 291 291 287 289 285 271 275 285 290 290 292 294 294 274 281 287 298 308 316 318 315 305 272 293 291 267 350 8 20 13 5 11 22 18 8 6 6 4 8 14 18
284 284 289 289 288 287 292 295 288 276 283 277 294 303 303 299 286 262 295 314 323 329 333 348 339 321 333 311 332 8 19 28 20 8 11 19 19 13 9 4 5 14 19 18
285 287 290 297 302 295 293 288 300 283 283 286 296 295 300 293 271 323 329 325 331 340 351 353 353 56 347 327 342 35 40 33 13 9 6 12 23 21 11 5 12 18 19 19
286 287 293 301 307 307 282 301 325 309 312 298 293 302 316 170 316 334 335 337 349 354 358 356 17 34 6 9 26 38 39 32 358 356 10 11 24 24 10 4 13 19 21 22
297 292 290 302 305 292 297 316 320 315 324 328 313 323 344 107 353 341 342 345 343 346 349 2 34 58 60 90 49 55 52 30 4 3 16 12 20 22 8 9 14 20 23 20
302 303 299 294 284 286 305 314 314 312 308 311 316 327 29 8 343 341 352 354 353 352 353 352 16 67 87 55 77 67 56 41 31 29 23 18 23 19 4 11 18 21 21 16
314 312 299 286 287 280 289 308 317 312 324 319 299 107 91 108 20 17 2 355 349 346 340 341 358 4 358 79 82 74 58 68 55 36 34 26 19 10 0 12 16 21 18 13
312 294 294 295 291 288 293 307 315 319 322 330 177 258 341 300 337 341 341 336 335 341 348 352 19 61 70 97 101 81 79 91 63 39 36 20 12 3 358 8 17 19 16 14
306 314 308 299 302 310 305 296 297 300 304 308 305 301 301 297 306 321 320 322 319 328 346 3 70 93 105 121 121 105 112 113 89 64 31 19 12 354 357 16 25 21 18 11
297 308 310 302 305 307 306 304 308 307 307 303 305 300 291 300 289 305 310 307 301 291 312 0 73 120 131 133 132 134 126 113 103 75 58 44 17 6 8 21 23 15 11 15
325 319 311 312 303 317 305 296 297 293 292 296 299 302 301 299 299 295 291 288 291 275 263 239 156 158 148 139 139 139 131 127 120 109 95 56 22 6 10 16 10 6 5 9
328 327 319 313 309 303 303 295 290 286 287 291 294 292 294 295 293 286 291 287 281 261 249 230 193 172 156 150 149 148 148 139 132 116 106 48 4 357 1 1 357 358 360 359
335 335 321 311 304 299 298 295 288 287 290 290 293 293 292 292 295 293 283 258 241 235 226 218 193 170 163 160 156 154 160 156 146 132 23 346 343 345 347 346 347 348 349 351
345 351 336 312 303 297 290 289 289 286 291 293 292 293 295 292 291 282 264 257 256 242 212 199 192 174 168 166 161 165 174 176 166 331 329 329 332 335 338 340 341 342 344 348
350 346 344 335 322 306 295 293 292 288 286 287 291 296 296 291 280 265 249 257 270 279 253 243 200 183 168 159 159 164 179 180 207 311 328 330 334 337 338 340 342 344 346 348
339 337 338 337 324 308 303 299 296 291 286 287 295 296 291 293 287 258 241 225 225 246 248 233 200 180 163 148 144 139 155 177 313 323 330 337 340 340 341 343 345 346 347 347
330 329 329 320 317 309 302 307 304 299 298 300 299 300 291 294 274 235 207 214 239 284 185 177 177 182 164 142 137 107 114 322 325 333 342 342 340 341 344 346 347 347 346 346
332 326 315 301 303 298 302 306 303 303 304 315 304 292 287 293 259 223 223 249 276 207 151 150 159 175 155 142 130 67 13 336 338 347 344 343 345 346 347 347 347 346 346 347
327 311 296 291 296 289 295 300 305 310 314 319 318 309 297 284 271 280 290 258 259 158 139 142 155 147 148 142 96 13 347 346 349 347 347 349 349 348 347 348 347 347 348 349
317 309 298 289 294 294 301 308 312 318 326 346 347 342 325 305 293 277 270 269 225 188 159 153 144 142 141 121 33 354 349 350 349 352 353 353 351 351 351 350 350 351 350 350
317 306 298 308 304 303 310 321 331 334 340 347 343 345 5 13 339 313 313 234 204 188 191 139 137 137 128 44 355 351 351 356 358 357 357 358 356 356 354 353 353 356 356 357
340 335 323 311 307 306 318 329 332 336 342 345 354 3 2 342 337 353 15 49 119 123 108 124 126 120 49 7 358 359 7 5 3 3 2 0 360 357 357 358 359 360 359 357
354 352 341 335 326 331 332 332 332 336 339 341 349 346 342 343 9 33 48 86 92 90 93 105 95 52 23 16 18 22 16 13 13 8 8 5 1 0 2 3 2 2 1 1
360 359 347 341 338 338 337 336 337 338 347 358 356 350 358 16 35 58 74 79 78 70 69 57 47 41 33 32 29 27 18 16 16 13 7 4 4 5 6 7 6 4 4 4